Regional Weather Roundup
Issued by NWS Green Bay, WI

Home | Current Version | Previous Version | Text Only | Print | Product List | Glossary On
Versions: 1 2 3 4 5 6 7 8 9 10 11 12 13 14 15 16 17 18 19 20 21 22 23 24 25 26 27 28 29 30 31 32 33 34 35 36 37 38 39 40 41 42 43 44 45 46 47 48 49 50
000
ASUS43 KGRB 301659
RWRGRB

NORTH-CENTRAL AND NORTHEAST WISCONSIN REGIONAL WEATHER ROUNDUP
NATIONAL WEATHER SERVICE GREEN BAY WI
1200 PM CDT WED JUL 30 2014

WIZ005-009-010>012-018-019-301800-
NORTH CENTRAL WISCONSIN

CITY           SKY/WX    TMP DP  RH WIND       PRES   REMARKS
IRONWOOD       NOT AVBL
MANITOWISH WTR NOT AVBL
ARBOR VITAE    NOT AVBL
EAGLE RIVER    NOT AVBL
LAND O LAKES   NOT AVBL
RHINELANDER    MOSUNNY   68  52  56 VRB6      30.08S
PHILLIPS       NOT AVBL
ANTIGO         NOT AVBL
TOMAHAWK       NOT AVBL
MERRILL        NOT AVBL
$$

WIZ013-073-301800-
NORTHEAST WISCONSIN

CITY           SKY/WX    TMP DP  RH WIND       PRES   REMARKS
IRON MOUNTAIN  SUNNY     69  46  43 CALM      30.02F
MARINETTE      PTSUNNY   66  54  63 SE7       30.03S
$$

WIZ017-030-035>037-045-301800-
CENTRAL WISCONSIN

CITY           SKY/WX    TMP DP  RH WIND       PRES   REMARKS
MEDFORD        NOT AVBL
WAUSAU         MOSUNNY   69  53  56 W10       30.06S
MOSINEE        MOSUNNY   70  46  43 N9        30.08F
MARSHFIELD     SUNNY     71  52  50 NW10      30.08S
WISC RAPIDS    MOSUNNY   71  50  47 W5        30.08S
STEVENS POINT  NOT AVBL
WAUPACA        NOT AVBL
SHAWANO        NOT AVBL
CLINTONVILLE   NOT AVBL
$$

WIZ038-039-048-051-301800-
FOX VALLEY

CITY           SKY/WX    TMP DP  RH WIND       PRES   REMARKS
NWS GREEN BAY  MOSUNNY   69  54  58 NW9       30.05S
APPLETON       PTSUNNY   70  48  46 NW7       30.06S
OSHKOSH        PTSUNNY   68  56  65 NE5       30.05S
FOND DU LAC    SUNNY     69  56  62 NE9       30.06S
$$

WIZ022-050-052-301800-
EAST CENTRAL WISCONSIN

CITY           SKY/WX    TMP DP  RH WIND       PRES   REMARKS
STURGEON BAY   SUNNY     64  52  63 NW8       30.06R
MANITOWOC      NOT AVBL
SHEBOYGAN      MOSUNNY   69  54  58 N3        30.05S
$$

LMZ563-521-522-541>543-301800-
LAKESHORE

STATION/POSITION TIME  TEMP    WIND        PRES    VSBY  WAVE
                       AIR SEA DIR/SP/G                  HT/PER
                 (UTC) (F)     (DEG/KT/KT) (MB)    (MI)  (FT/S)
SHEBOYGAN LKSHOR 1600   59      40/  6/  6 1017.9R
KEWAUNEE LKSHORE 1600   58     180/  5/  6 1018.1R
ALGOMA MARINA    1600          350/  8/ 10   N/A
NORTHPORT PIER   1600   61     320/  7/  9 1016.9S
N MID LAKE BUOY  1600   52 53   60/  6/  6 1016.7S         1
S GREEN BAY BUOY 1600   62 66   70/  4     1018.5R
SISTER BAY LKSHO 1600   63     350/  9/ 11   N/A
CHAMBERS ISLAND  1600   63      20/  4/  6 1017.6S
MENOMINEE LKSHOR 1600   62      80/  6/  7 1018.0R
$$


USA.gov is the U.S. government's official web portal to all federal, state and local government web resources and services.